Location: Pasadena, ca
(34.1243°N, 118.1037°W)
Time: 12:38:15
(UTC-08:00)

OTV 5 (USA 277) - Pass Details

Date: 12 October 2017
Orbit: 404 x 417 km, 43.0° (Epoch: 07 September)

Event Time Altitude Azimuth Distance (km) Brightness Sun altitude
Rises 19:43:53 0° 277° (W) 2,351 ? -17.8°
Reaches altitude 10° 19:46:17 10° 293° (WNW) 1,489 ? -18.3°
Maximum altitude 19:49:01 22° 347° (NNW) 951 ? -18.9°
Enters shadow 19:49:55 20° 11° (NNE) 1,024 ? -19.1°
